Time,TemperatureF,DewpointF,PressureIn,WindDirection,WindDirectionDegrees,WindSpeedMPH,WindSpeedGustMPH,Humidity,HourlyPrecipIn,Conditions,Clouds,dailyrainin,SolarRadiationWatts/m^2,SoftwareType,DateUTC
2013-12-04 08:20:00,67.0,61.0,28.64,NNW,337,2.0,2.0,81,0.00,,,0.00,134,Wunderground v.1.15,2013-12-03 21:20:00,
2013-12-04 08:30:00,67.2,60.8,28.65,North,350,3.0,3.0,80,0.00,,,0.00,142,Wunderground v.1.15,2013-12-03 21:30:00,
2013-12-04 08:40:00,67.8,61.0,28.64,North,5,2.0,5.0,79,0.00,,,0.00,475,Wunderground v.1.15,2013-12-03 21:40:00,
2013-12-04 08:45:00,68.6,61.5,28.64,NNW,347,2.0,9.0,78,0.00,,,0.00,547,Wunderground v.1.15,2013-12-03 21:45:00,
2013-12-04 08:50:00,69.5,61.6,28.64,North,355,3.0,3.0,76,0.00,,,0.00,629,Wunderground v.1.15,2013-12-03 21:50:00,
2013-12-04 09:00:00,71.4,62.3,28.63,NNW,329,2.0,2.0,73,0.00,,,0.00,661,Wunderground v.1.15,2013-12-03 22:00:00,
2013-12-04 09:05:00,72.5,62.6,28.63,North,349,2.0,2.0,71,0.00,,,0.00,677,Wunderground v.1.15,2013-12-03 22:05:00,
2013-12-04 09:10:00,73.4,63.0,28.63,NW,323,2.0,2.0,70,0.00,,,0.00,689,Wunderground v.1.15,2013-12-03 22:10:00,
2013-12-04 09:20:00,74.9,63.6,28.63,NNE,19,3.0,3.0,68,0.00,,,0.00,722,Wunderground v.1.15,2013-12-03 22:20:00,
2013-12-04 09:25:00,75.3,63.2,28.63,NW,323,3.0,4.0,66,0.00,,,0.00,738,Wunderground v.1.15,2013-12-03 22:25:00,
2013-12-04 09:30:00,75.4,63.2,28.62,NW,323,3.0,3.0,66,0.00,,,0.00,756,Wunderground v.1.15,2013-12-03 22:30:00,
2013-12-04 09:40:00,76.4,62.9,28.62,NNW,346,2.0,4.0,63,0.00,,,0.00,782,Wunderground v.1.15,2013-12-03 22:40:00,
2013-12-04 09:45:00,77.3,63.3,28.62,NNW,327,3.0,4.0,62,0.00,,,0.00,798,Wunderground v.1.15,2013-12-03 22:45:00,
2013-12-04 09:50:00,78.1,63.6,28.61,North,9,2.0,2.0,61,0.00,,,0.00,817,Wunderground v.1.15,2013-12-03 22:50:00,
2013-12-04 09:55:00,78.8,62.8,28.61,NW,324,3.0,3.0,58,0.00,,,0.00,831,Wunderground v.1.15,2013-12-03 22:55:00,
2013-12-04 10:05:00,80.0,62.4,28.61,NW,323,3.0,5.0,55,0.00,,,0.00,842,Wunderground v.1.15,2013-12-03 23:05:00,
2013-12-04 10:10:00,80.1,62.5,28.61,NW,319,3.0,3.0,55,0.00,,,0.00,860,Wunderground v.1.15,2013-12-03 23:10:00,
2013-12-04 10:15:00,80.6,62.4,28.61,NW,320,3.0,5.0,54,0.00,,,0.00,865,Wunderground v.1.15,2013-12-03 23:15:00,
2013-12-04 10:20:00,81.3,63.1,28.61,North,350,2.0,8.0,54,0.00,,,0.00,784,Wunderground v.1.15,2013-12-03 23:20:00,
2013-12-04 10:30:00,81.8,61.9,28.61,WNW,294,3.0,3.0,51,0.00,,,0.00,928,Wunderground v.1.15,2013-12-03 23:30:00,
2013-12-04 10:40:00,82.8,61.7,28.61,NNW,329,4.0,4.0,49,0.00,,,0.00,983,Wunderground v.1.15,2013-12-03 23:40:00,
2013-12-04 10:45:00,83.7,61.9,28.61,NW,324,4.0,4.0,48,0.00,,,0.00,984,Wunderground v.1.15,2013-12-03 23:45:00,
2013-12-04 10:50:00,84.4,62.6,28.60,North,9,3.0,9.0,48,0.00,,,0.00,1020,Wunderground v.1.15,2013-12-03 23:50:00,
2013-12-04 11:00:00,84.5,60.8,28.59,NW,319,5.0,5.0,45,0.00,,,0.00,788,Wunderground v.1.15,2013-12-04 00:00:00,
2013-12-04 11:05:00,84.5,61.4,28.59,NW,326,4.0,8.0,46,0.00,,,0.00,775,Wunderground v.1.15,2013-12-04 00:05:00,
2013-12-04 11:10:00,84.4,60.7,28.58,NE,51,4.0,7.0,45,0.00,,,0.00,837,Wunderground v.1.15,2013-12-04 00:10:00,
2013-12-04 11:15:00,84.9,60.6,28.58,NE,42,4.0,7.0,44,0.00,,,0.00,923,Wunderground v.1.15,2013-12-04 00:15:00,
2013-12-04 11:25:00,86.0,60.9,28.58,NNE,30,4.0,10.0,43,0.00,,,0.00,833,Wunderground v.1.15,2013-12-04 00:25:00,
2013-12-04 11:30:00,85.6,61.2,28.58,NW,315,4.0,4.0,44,0.00,,,0.00,854,Wunderground v.1.15,2013-12-04 00:30:00,
2013-12-04 11:40:00,86.3,61.8,28.57,NW,314,4.0,5.0,44,0.00,,,0.00,1093,Wunderground v.1.15,2013-12-04 00:40:00,
2013-12-04 11:45:00,87.0,61.8,28.57,WNW,286,4.0,5.0,43,0.00,,,0.00,1037,Wunderground v.1.15,2013-12-04 00:45:00,
2013-12-04 11:50:00,88.1,60.7,28.57,North,349,5.0,8.0,40,0.00,,,0.00,854,Wunderground v.1.15,2013-12-04 00:50:00,
2013-12-04 12:00:00,88.2,61.5,28.57,NNE,17,5.0,5.0,41,0.00,,,0.00,756,Wunderground v.1.15,2013-12-04 01:00:00,
2013-12-04 12:05:00,88.2,62.2,28.57,North,10,4.0,5.0,42,0.00,,,0.00,717,Wunderground v.1.15,2013-12-04 01:05:00,
2013-12-04 12:10:00,87.9,61.9,28.56,NNW,348,4.0,4.0,42,0.00,,,0.00,708,Wunderground v.1.15,2013-12-04 01:10:00,
2013-12-04 12:20:00,87.3,62.1,28.57,North,355,4.0,5.0,43,0.00,,,0.00,612,Wunderground v.1.15,2013-12-04 01:20:00,
2013-12-04 12:25:00,86.9,63.0,28.56,NNE,28,4.0,5.0,45,0.00,,,0.00,550,Wunderground v.1.15,2013-12-04 01:25:00,
2013-12-04 12:30:00,86.5,62.6,28.56,North,355,4.0,6.0,45,0.00,,,0.00,612,Wunderground v.1.15,2013-12-04 01:30:00,
2013-12-04 12:40:00,87.1,62.5,28.55,NNE,15,3.0,3.0,44,0.00,,,0.00,679,Wunderground v.1.15,2013-12-04 01:40:00,
2013-12-04 12:45:00,87.8,63.8,28.55,NE,44,2.0,3.0,45,0.00,,,0.00,599,Wunderground v.1.15,2013-12-04 01:45:00,
2013-12-04 12:55:00,88.0,62.7,28.55,NW,308,3.0,5.0,43,0.00,,,0.00,868,Wunderground v.1.15,2013-12-04 01:55:00,
2013-12-04 13:00:00,88.7,63.3,28.54,NE,37,3.0,3.0,43,0.00,,,0.00,768,Wunderground v.1.15,2013-12-04 02:00:00,
2013-12-04 13:05:00,88.8,62.7,28.54,North,9,4.0,4.0,42,0.00,,,0.00,661,Wunderground v.1.15,2013-12-04 02:05:00,
2013-12-04 13:10:00,88.9,62.8,28.54,WNW,296,3.0,3.0,42,0.00,,,0.00,937,Wunderground v.1.15,2013-12-04 02:10:00,
2013-12-04 13:20:00,90.4,63.5,28.53,NE,38,4.0,4.0,41,0.00,,,0.00,1157,Wunderground v.1.15,2013-12-04 02:20:00,
2013-12-04 13:25:00,91.4,61.5,28.53,NW,304,3.0,4.0,37,0.00,,,0.00,1116,Wunderground v.1.15,2013-12-04 02:25:00,
2013-12-04 13:30:00,92.0,62.8,28.53,NW,309,4.0,5.0,38,0.00,,,0.00,793,Wunderground v.1.15,2013-12-04 02:30:00,
2013-12-04 13:40:00,92.0,62.0,28.52,NW,307,3.0,3.0,37,0.00,,,0.00,983,Wunderground v.1.15,2013-12-04 02:40:00,
2013-12-04 13:45:00,93.5,61.7,28.52,WNW,298,3.0,3.0,35,0.00,,,0.00,997,Wunderground v.1.15,2013-12-04 02:45:00,
2013-12-04 13:50:00,94.4,62.5,28.51,NNW,342,3.0,3.0,35,0.00,,,0.00,823,Wunderground v.1.15,2013-12-04 02:50:00,
2013-12-04 14:00:00,93.4,61.7,28.50,North,355,3.0,5.0,35,0.00,,,0.00,650,Wunderground v.1.15,2013-12-04 03:00:00,
2013-12-04 14:05:00,93.2,61.5,28.50,NE,38,3.0,5.0,35,0.00,,,0.00,638,Wunderground v.1.15,2013-12-04 03:05:00,
2013-12-04 14:15:00,92.0,59.6,28.49,North,5,4.0,4.0,34,0.00,,,0.00,413,Wunderground v.1.15,2013-12-04 03:15:00,
2013-12-04 14:20:00,91.6,60.1,28.50,NNE,16,3.0,4.0,35,0.00,,,0.00,422,Wunderground v.1.15,2013-12-04 03:20:00,
2013-12-04 14:25:00,92.5,60.9,28.50,NNW,347,3.0,4.0,35,0.00,,,0.00,1211,Wunderground v.1.15,2013-12-04 03:25:00,
2013-12-04 14:30:00,94.5,60.1,28.49,NNW,340,4.0,4.0,32,0.00,,,0.00,1120,Wunderground v.1.15,2013-12-04 03:30:00,
2013-12-04 14:40:00,94.6,60.2,28.49,North,355,3.0,4.0,32,0.00,,,0.00,352,Wunderground v.1.15,2013-12-04 03:40:00,
2013-12-04 14:50:00,93.0,59.6,28.48,NNW,329,2.0,2.0,33,0.00,,,0.00,469,Wunderground v.1.15,2013-12-04 03:50:00,
2013-12-04 14:55:00,93.4,60.0,28.48,NNE,32,2.0,5.0,33,0.00,,,0.00,1102,Wunderground v.1.15,2013-12-04 03:55:00,
2013-12-04 15:00:00,94.1,60.6,28.48,NNE,28,3.0,4.0,33,0.00,,,0.00,988,Wunderground v.1.15,2013-12-04 04:00:00,
2013-12-04 15:05:00,93.9,59.6,28.47,NNE,17,4.0,4.0,32,0.00,,,0.00,534,Wunderground v.1.15,2013-12-04 04:05:00,
2013-12-04 15:15:00,93.0,59.6,28.46,North,5,4.0,5.0,33,0.00,,,0.00,784,Wunderground v.1.15,2013-12-04 04:15:00,
2013-12-04 15:20:00,93.3,60.7,28.46,North,360,4.0,4.0,34,0.00,,,0.00,555,Wunderground v.1.15,2013-12-04 04:20:00,
2013-12-04 15:25:00,93.2,63.8,28.45,NE,53,3.0,4.0,38,0.00,,,0.00,359,Wunderground v.1.15,2013-12-04 04:25:00,
2013-12-04 15:35:00,91.8,64.7,28.45,NNE,24,2.0,3.0,41,0.00,,,0.00,385,Wunderground v.1.15,2013-12-04 04:35:00,
2013-12-04 15:40:00,91.2,66.9,28.45,NE,53,1.0,1.0,45,0.00,,,0.00,302,Wunderground v.1.15,2013-12-04 04:40:00,
2013-12-04 15:50:00,88.3,67.3,28.45,ESE,121,2.0,2.0,50,0.00,,,0.00,315,Wunderground v.1.15,2013-12-04 04:50:00,
2013-12-04 15:55:00,87.5,67.7,28.45,ENE,65,2.0,3.0,52,0.00,,,0.00,304,Wunderground v.1.15,2013-12-04 04:55:00,
2013-12-04 16:00:00,86.7,65.8,28.45,NE,53,2.0,2.0,50,0.00,,,0.00,301,Wunderground v.1.15,2013-12-04 05:00:00,
2013-12-04 16:05:00,86.4,66.1,28.45,ENE,69,3.0,3.0,51,0.00,,,0.00,334,Wunderground v.1.15,2013-12-04 05:05:00,
2013-12-04 16:10:00,86.4,66.1,28.45,East,84,3.0,3.0,51,0.00,,,0.00,396,Wunderground v.1.15,2013-12-04 05:10:00,
2013-12-04 16:15:00,86.6,65.7,28.45,NNE,22,3.0,3.0,50,0.00,,,0.00,359,Wunderground v.1.15,2013-12-04 05:15:00,
2013-12-04 16:20:00,86.5,66.2,28.44,NNE,22,3.0,4.0,51,0.00,,,0.00,329,Wunderground v.1.15,2013-12-04 05:20:00,
2013-12-04 16:25:00,85.9,65.7,28.44,NE,42,4.0,4.0,51,0.00,,,0.00,276,Wunderground v.1.15,2013-12-04 05:25:00,
2013-12-04 16:30:00,85.4,66.3,28.44,ENE,74,3.0,4.0,53,0.00,,,0.00,751,Wunderground v.1.15,2013-12-04 05:30:00,
2013-12-04 16:35:00,86.6,66.9,28.43,ENE,59,4.0,4.0,52,0.00,,,0.00,803,Wunderground v.1.15,2013-12-04 05:35:00,
2013-12-04 16:45:00,88.3,67.3,28.43,ENE,77,4.0,4.0,50,0.00,,,0.00,475,Wunderground v.1.15,2013-12-04 05:45:00,
2013-12-04 16:55:00,87.6,66.7,28.43,North,355,5.0,7.0,50,0.00,,,0.00,213,Wunderground v.1.15,2013-12-04 05:55:00,
2013-12-04 17:00:00,86.7,66.4,28.43,NW,315,5.0,5.0,51,0.00,,,0.00,352,Wunderground v.1.15,2013-12-04 06:00:00,
2013-12-04 17:05:00,86.4,67.2,28.43,ENE,74,4.0,5.0,53,0.00,,,0.00,513,Wunderground v.1.15,2013-12-04 06:05:00,
2013-12-04 17:10:00,86.6,66.9,28.43,NNE,22,4.0,6.0,52,0.00,,,0.00,446,Wunderground v.1.15,2013-12-04 06:10:00,
2013-12-04 17:20:00,86.7,67.0,28.42,ENE,65,5.0,5.0,52,0.00,,,0.00,237,Wunderground v.1.15,2013-12-04 06:20:00,
2013-12-04 17:25:00,86.0,66.9,28.42,East,91,5.0,5.0,53,0.00,,,0.00,352,Wunderground v.1.15,2013-12-04 06:25:00,
2013-12-04 17:30:00,85.9,67.3,28.42,East,88,4.0,7.0,54,0.00,,,0.00,348,Wunderground v.1.15,2013-12-04 06:30:00,
2013-12-04 17:40:00,86.1,67.5,28.42,NNE,28,4.0,4.0,54,0.00,,,0.00,388,Wunderground v.1.15,2013-12-04 06:40:00,
2013-12-04 17:45:00,86.1,67.0,28.42,ENE,74,3.0,4.0,53,0.00,,,0.00,257,Wunderground v.1.15,2013-12-04 06:45:00,
2013-12-04 17:55:00,85.7,67.1,28.42,NNE,22,4.0,9.0,54,0.00,,,0.00,162,Wunderground v.1.15,2013-12-04 06:55:00,
2013-12-04 18:00:00,85.3,66.8,28.42,SSE,150,4.0,4.0,54,0.00,,,0.00,192,Wunderground v.1.15,2013-12-04 07:00:00,
2013-12-04 18:05:00,85.1,66.6,28.42,NNE,19,3.0,4.0,54,0.00,,,0.00,199,Wunderground v.1.15,2013-12-04 07:05:00,
2013-12-04 18:10:00,85.1,66.6,28.42,NE,40,3.0,3.0,54,0.00,,,0.00,148,Wunderground v.1.15,2013-12-04 07:10:00,
2013-12-04 18:15:00,84.8,66.3,28.42,NE,44,3.0,4.0,54,0.00,,,0.00,128,Wunderground v.1.15,2013-12-04 07:15:00,